Miscellaneous Local Product
Issued by NWS Hastings, NE

Home | Current Version | Previous Version | Graphics & Text | Print | Product List | Glossary On
Versions: 1 2 3 4 5 6 7 8 9 10 11 12 13 14 15 16 17 18 19 20 21 22 23 24 25 26 27 28 29 30 31 32 33 34 35 36 37 38 39 40 41 42 43 44 45 46 47 48 49 50
652
AXUS43 KGID 201002
MISGRI

GID CWA HOURLY WEATHER ROUNDUP
NATIONAL WEATHER SERVICE HASTINGS NE
400 AM CST FRI JAN 20 2017

NOTE: "FAIR" INDICATES FEW OR NO CLOUDS BELOW 12,000 FEET WITH NO
SIGNIFICANT WEATHER AND/OR OBSTRUCTIONS TO VISIBILITY.

...SOUTH CENTRAL NEBRASKA...

CITY           SKY/WX    TMP DP  RH WIND       PRES   REMARKS
GRAND ISLAND   FOG       35  35 100 SE3       29.49F VSB 1/4
HASTINGS       FOG       36  35  96 CALM      29.50F VSB 1/4
KEARNEY        CLOUDY    36  34  93 CALM      29.50F VSB 1/4
ORD            CLEAR     35  32  88 SE5       29.46F FOG     WCI  31
YORK           FOG       37  37 100 CALM      29.52F VSB 1/2
AURORA         FOG       36  36 100 E3        29.50F VSB 1/2
LEXINGTON      FOG       35  34  96 S3        29.50F VSB 3/4
HOLDREGE       FOG       35  34  97 CALM      29.51S VSB 1/4
HEBRON         FOG       38  38  99 CALM      29.52F VSB 1/2

...NEBRASKA PANHANDLE...

CITY           SKY/WX    TMP DP  RH WIND       PRES   REMARKS
CHADRON        CLOUDY    19  16  88 W3        29.45R
ALLIANCE       CLOUDY    17  13  84 NW3       29.44F
SCOTTSBLUFF    CLOUDY    28  22  78 NW6       29.46F WCI  22
SIDNEY         CLOUDY    26  22  84 NW9       29.46F WCI  17

...WESTERN AND NORTH CENTRAL NEBRASKA...

CITY           SKY/WX    TMP DP  RH WIND       PRES   REMARKS
VALENTINE      CLOUDY    24  20  84 SW7       29.41F WCI  16
AINSWORTH      CLEAR     31  31  99 SW10      29.42F WCI  22
ONEILL         CLOUDY    39  37  94 SW14      29.45F WCI  31
BROKEN BOW     FOG       33  33 100 S6        29.47F VSB 1/4 WCI  28
IMPERIAL       FOG       29  28  96 W3        29.48F VSB 1/2
NORTH PLATTE   CLOUDY    36  33  89 SW8       29.50R WCI  30
MCCOOK         FOG       33  33 100 CALM      29.50F VSB 1/2

...EASTERN NEBRASKA...

CITY           SKY/WX    TMP DP  RH WIND       PRES   REMARKS
NORFOLK        CLOUDY    37  36  96 SE8       29.50F WCI  31
SO SIOUX CITY  FOG       38  37  97 SE7       29.56F VSB 3/4 WCI  33
TEKAMAH        FOG       36  36 100 SE3       29.57F VSB 1/2
COLUMBUS       CLOUDY    36  36 100 CALM      29.54F VSB 3/4
ALBION         CLOUDY   N/A N/A N/A SE6       29.50F HAZE
OMAHA EPPLEY   FOG       37  34  89 CALM      29.58F VSB 1/2
OFFUTT AFB     FOG       38  38 100 CALM      29.57F VSB 1/2
MILLARD        FOG       40  39  97 CALM      29.57F VSB 1
LINCOLN        FOG       39  39 100 W5        29.57F VSB 1/4
NEBRASKA CITY  FOG       39  39 100 CALM      29.58F VSB 1/4
BEATRICE       CLOUDY    40  40 100 CALM      29.53F FOG
FALLS CITY     FOG       40  40 100 NE3       29.57F VSB 1/4

...NORTHERN KANSAS...

CITY           SKY/WX    TMP DP  RH WIND       PRES   REMARKS
GOODLAND       FOG       29  29 100 SE5       29.46F VSB 1/4 WCI  24
HILL CITY      FOG       39  39 100 CALM      29.53S VSB 1/4
NORTON         FOG       36  34  93 CALM      29.51R VSB 1/4
PHILLIPSBURG   FOG       39  39 100 CALM      29.53R VSB 1/4
SMITH CENTER   FOG       37  37 100 SE5       29.53F VSB 1/4 WCI  34
HAYS           FOG       41  40  96 S3        29.53S VSB 1/4
RUSSELL        FOG       41  41 100 S6        29.51F VSB 1/2
CONCORDIA      FOG       39  39 100 E3        29.53S VSB 1/4
SALINA           N/A    N/A N/A N/A MISG        N/A
TOPEKA         FOG       45  43  93 E3        29.56S VSB 1/4



USA.gov is the U.S. government's official web portal to all federal, state and local government web resources and services.